Mayport NS, FL

11:44 AM EDT on March 30, 2017 (GMT -0400)
Mayport Naval Station / Adm. David L. McDonald Field

Weather History for KNRB - March, 2013

Change the Weather History Date:

Friday, March 22, 2013

  Actual Average Record
Temperature  
Mean Temperature 56 °F -  
Max Temperature 63 °F 68 °F 87 °F (2011)
Min Temperature 52 °F 55 °F 45 °F (1998)
Degree Days  
Heating Degree Days 8    
Growing Degree Days 6 (Base 50)    
Moisture  
Dew Point 39 °F    
Average Humidity 53    
Maximum Humidity 75    
Minimum Humidity 41    
Precipitation  
Precipitation 0.00 in - - ()
Sea Level Pressure  
Sea Level Pressure 30.02 in    
Wind  
Wind Speed 7 mph (NE)    
Max Wind Speed 18 mph    
Max Gust Speed 23 mph    
Visibility 10 miles    
Events      
Averages and records for this station are not official NWS values.
T = Trace of Precipitation, MM = Missing Value Source: NWS Daily Summary

Daily Weather History Graph

Daily Weather History Graph

Search for Another Location

Airport or City:

Trip Planner

Search our weather history database for the weather conditions in past years. The results will help you decide how hot, cold, wet, or windy it might be!

Date:

Astronomy

Mar. 22, 2013 Rise Set
Actual Time 7:26 AM EDT 7:38 PM EDT
Civil Twilight 7:02 AM EDT 8:02 PM EDT
Nautical Twilight 6:34 AM EDT 8:30 PM EDT
Astronomical Twilight 6:06 AM EDT 8:58 PM EDT
Moon 3:20 PM EDT (3/22) 4:08 AM EDT (3/22)
Length of Visible Light 12h 59m
Length of Day
12h 11m
Waxing Gibbous, 77% of the Moon is Illuminated
Mar 22
Waxing Gibbous
Mar 27
Full
Apr 3
Last Quarter
Apr 10
New
Apr 18
First Quarter

Hourly Weather History & Observations

Time (EDT) Temp. Dew Point Humidity Pressure Visibility Wind Dir Wind Speed Gust Speed Precip Events Conditions
12:52 AM 52.0 °F 33.1 °F 49% 29.97 in 10.0 mi Calm Calm - N/A   Partly Cloudy
1:52 AM 52.0 °F 35.1 °F 53% 29.95 in 10.0 mi North 3.5 mph - N/A   Scattered Clouds
2:52 AM 53.1 °F 34.0 °F 48% 29.96 in 10.0 mi North 4.6 mph - N/A   Mostly Cloudy
3:52 AM 52.0 °F 35.1 °F 53% 29.96 in 10.0 mi Calm Calm - N/A   Scattered Clouds
4:52 AM 55.9 °F 35.1 °F 45% 29.95 in 10.0 mi North 8.1 mph - N/A   Partly Cloudy
5:52 AM 55.0 °F 34.0 °F 45% 29.99 in 10.0 mi North 10.4 mph - N/A   Mostly Cloudy
6:52 AM 55.0 °F 36.0 °F 49% 30.00 in 10.0 mi NNE 18.4 mph 23.0 mph N/A   Scattered Clouds
7:52 AM 54.0 °F 36.0 °F 51% 30.04 in 10.0 mi NNE 12.7 mph 20.7 mph N/A   Mostly Cloudy
8:52 AM 54.0 °F 35.1 °F 49% 30.06 in 10.0 mi NNE 13.8 mph - N/A   Mostly Cloudy
9:52 AM 55.0 °F 33.1 °F 43% 30.06 in 10.0 mi NE 11.5 mph - N/A   Mostly Cloudy
10:52 AM 55.9 °F 34.0 °F 44% 30.07 in 10.0 mi NE 9.2 mph - N/A   Mostly Cloudy
11:52 AM 60.1 °F 36.0 °F 41% 30.07 in 10.0 mi NE 9.2 mph - N/A   Mostly Cloudy
12:52 PM 59.0 °F 37.0 °F 44% 30.09 in 10.0 mi NE 8.1 mph - N/A   Mostly Cloudy
1:52 PM 60.1 °F 37.9 °F 44% 30.06 in 10.0 mi NE 8.1 mph - N/A   Mostly Cloudy
2:52 PM 61.0 °F 37.0 °F 41% 30.02 in 10.0 mi ENE 10.4 mph - N/A   Mostly Cloudy
3:52 PM 61.0 °F 39.9 °F 46% 30.01 in 10.0 mi NE 9.2 mph - N/A   Mostly Cloudy
4:52 PM 60.1 °F 42.1 °F 51% 30.01 in 10.0 mi ENE 8.1 mph - N/A   Mostly Cloudy
5:52 PM 59.0 °F 44.1 °F 58% 30.00 in 10.0 mi NE 9.2 mph - N/A   Mostly Cloudy
6:52 PM 57.9 °F 46.0 °F 65% 30.01 in 10.0 mi NNE 9.2 mph - N/A   Mostly Cloudy
7:52 PM 57.0 °F 46.0 °F 67% 30.03 in 10.0 mi NNE 11.5 mph - N/A   Overcast
8:52 PM 57.0 °F 46.0 °F 67% 30.04 in 10.0 mi NE 12.7 mph - N/A   Clear
9:52 PM 57.0 °F 46.9 °F 69% 30.05 in 10.0 mi ENE 10.4 mph - N/A   Partly Cloudy
10:52 PM 57.9 °F 48.9 °F 72% 30.02 in 10.0 mi East 10.4 mph - N/A   Mostly Cloudy
11:52 PM 59.0 °F 51.1 °F 75% 30.03 in 10.0 mi NE 11.5 mph - N/A   Clear